STARLINK-1328, 45576

Orbit data source: Space-Track

STARLINK-1328, 45576 is a payload satellite owned by SpaceX/Seattle (US) in LEO that was launched on Wed, 22 Apr 2020 UTC via an FALCON 9 launch vehicle from the Air Force Eastern Test Range (AFETR). Payload-class satellites include a variety of spacecraft equipped with specific instruments for various scientific and technological missions. These include communications satellites like Starlink; space stations such as the ISS; scientific satellites like the Hubble; Earth observation satellites from companies like Planet Labs, Umbra, and HawkEye 360; GPS; miniature CubeSats for education and research; and military/defense satellites.

Loading next visibility...
Identifier
45576, 2020-025AX
Orbit
LEO
Country
Flag of USUS
Related business
Manufacturer
SpaceX/Seattle
Mission
Partially operational Commercial Communications
Bus & Motor
STARLINK, Unknown motor
Mass
260 kg wet, ~248 kg dry
Launch date (UTC)
2020-04-22 (5 years ago)
Launch vehicle
FALCON 9
Launch site
Air Force Eastern Test Range (AFETR)
Object type
Payload
Rocket body
Debris
Shape & HBR
Box + 1 Pan, 10.1 m
Radar Cross Section
13.562 m², Large (>1 m²)

Expand to show TLE details & history
Last TLE update: 17 hours ago

TLE from 17 hours ago
0 STARLINK-1328
1 45576U 20025AX  25292.33336806  .00100590  00000-0  10519-2 0  9991
2 45576  53.0529 332.6595 0009538 347.3606  33.3791 15.63632126  5792
Epoch: 2025-10-19T08:00Z
TLE epoch observation values (Epoch: 2025-10-19T08:00:03.000Z)
Latitude
16.50968°
Longitude
-162.59722°
Altitude
372.04 km
Speed
7.692 km/s
True Right ascension
23h 01m 52s
True Declination
16° 24' 39"
Sunlit
Object was in full shadow at epoch
Visualization orbit readout
Latitude
Unknown
Longitude
Unknown
Altitude
Unknown
Speed
Unknown
Apparent Right ascension
Unknown
Apparent Declination
Unknown
Sunlit
N/A
Visualization observer readout
Local Sidereal Time
20:15:45
Azimuth
Unknown
Elevation
Unknown
Doppler factor
Unknown
Orbital elements
Apogee altitude
383.897 km
Perigee altitude
371.01 km
Semi-major axis
6,755.59 km
Eccentricity
0.00095
Inclination
53.0529°
RAAN
332.6595°
Arg. of periapsis
347.3606°
True anomaly
33.43929°
Mean anomaly
33.3791°
Eccentric anomaly
33.40919°
Mean motion
3.90884 °/min
Orbital period
92.1 mins
BSTAR
0.0010519
Loading maneuver chart data...
Computing Atmospheric mass density...
Loading historical data...
Loading historical data...
Loading historical data...
Loading historical data...
Loading historical data...
Loading historical data...
Loading historical data...

Documentation

Showing up to 5 results
|